Theta_e
333 331 328 325 325 327 325 326 327 325 324 321 321 326 327 321 321 328 327 321 320 323 322 321 321 319 319 320 320 318 319 320 321 322 323 322 321 319 318 316 315 315 313 309 307 307 308 308 308 308 308 308 308 308 308 308 307 307 308 308 308 308 308 308 308 308 309 309 310 310 312 313 312 311 311 312 312 311 310 310 310 311 311 311 311 310 310
333 333 327 324 327 327 327 329 327 324 323 322 321 323 322 318 320 323 321 319 321 320 318 319 320 318 317 318 319 320 322 322 323 324 324 323 322 320 319 317 314 313 311 308 307 307 307 307 307 308 308 308 308 308 308 307 307 307 307 308 308 308 308 307 307 308 309 309 310 311 312 312 311 311 311 312 311 312 311 309 309 310 310 310 310 308 308
333 333 327 326 327 327 328 331 326 321 322 322 320 321 320 319 321 321 317 318 322 320 317 320 320 319 320 322 325 328 328 325 324 325 326 325 322 320 318 316 314 313 310 307 306 307 307 307 308 308 308 308 308 308 308 307 306 307 307 308 308 308 307 306 307 308 309 309 310 311 312 312 311 311 312 312 311 312 312 310 310 310 310 310 309 308 307
333 330 327 329 328 324 324 327 328 329 328 326 324 323 320 320 323 323 318 321 330 327 319 319 322 322 322 324 327 330 329 326 325 327 328 326 322 320 317 315 314 314 311 307 306 307 307 307 308 308 308 308 307 307 308 307 306 306 307 308 308 308 306 306 307 308 309 309 309 311 312 312 312 311 311 312 310 310 312 312 311 311 310 309 309 308 307
332 328 324 326 328 326 326 327 332 333 329 326 324 321 320 318 320 324 324 327 332 326 316 317 321 322 322 323 323 323 323 323 323 323 324 324 322 318 316 315 314 313 310 307 306 308 308 307 308 308 308 308 307 307 307 306 306 306 307 308 308 307 306 306 307 308 309 308 309 310 310 311 311 311 310 310 309 308 310 312 312 311 310 309 308 308 308
332 330 326 326 327 329 329 331 333 328 323 326 326 327 329 323 318 322 324 323 323 320 317 318 320 320 320 318 317 316 316 318 321 322 321 322 322 318 316 315 312 308 307 307 308 308 308 308 308 308 308 307 307 307 306 306 306 306 307 308 308 307 306 306 307 308 308 308 308 309 309 309 309 309 309 309 308 308 309 310 312 312 310 309 308 308 308
330 330 330 329 328 330 330 327 325 321 320 323 323 326 331 326 320 321 322 321 322 321 318 317 317 319 319 316 317 321 319 318 320 321 319 321 325 326 326 321 311 305 306 308 308 307 308 308 308 308 307 307 307 307 306 306 306 307 307 308 308 307 306 306 306 307 308 308 308 308 308 308 308 308 308 308 308 308 308 309 311 312 311 309 308 308 308
324 324 326 326 325 328 326 320 317 318 319 320 320 325 331 329 323 322 324 325 324 322 322 321 320 318 318 319 324 327 325 321 320 321 323 326 328 326 323 318 310 307 308 309 308 309 308 308 308 307 307 307 306 306 306 306 307 307 307 308 308 307 306 306 306 307 308 308 308 308 308 308 307 307 307 307 308 308 308 308 310 312 312 310 309 308 308
323 324 326 327 325 326 327 324 321 321 323 325 324 325 329 332 326 322 325 329 327 326 328 327 323 319 320 326 330 328 326 324 319 316 318 320 320 313 309 309 309 309 310 309 309 309 308 307 308 307 307 307 306 305 305 306 307 308 308 308 307 307 306 306 306 307 307 307 307 308 308 307 307 307 307 307 307 307 308 308 309 311 312 310 309 308 308
322 325 327 328 328 329 334 334 327 323 325 327 325 324 328 334 329 321 323 329 329 329 329 327 328 326 324 328 330 324 323 324 319 314 310 309 309 309 307 309 310 309 309 309 308 308 308 307 307 307 307 306 305 304 305 306 306 307 307 307 307 307 306 306 306 306 306 307 306 307 307 306 306 306 306 306 307 307 308 308 308 310 311 310 310 309 308
324 326 328 329 328 330 334 335 331 324 322 324 325 327 330 334 329 322 323 328 329 330 329 326 327 326 323 328 332 327 324 323 318 316 313 307 307 309 308 309 310 310 309 308 307 307 307 307 307 307 306 306 304 304 305 306 306 307 307 306 306 306 306 306 306 306 306 306 306 306 306 306 306 306 306 306 307 307 307 308 309 310 310 310 310 308 308
325 326 328 328 326 325 326 329 330 325 322 324 327 328 332 336 331 323 324 330 331 331 330 324 322 323 323 327 330 326 320 315 312 312 312 308 307 308 309 308 309 309 308 307 307 307 307 307 307 307 306 305 304 305 305 306 306 306 306 306 305 306 306 305 305 306 305 305 305 305 305 305 305 306 306 306 306 307 306 307 309 309 309 310 309 308 308
326 323 325 325 326 328 327 327 329 325 321 323 326 329 335 340 335 326 325 331 332 331 330 325 324 328 328 326 326 324 319 317 314 310 309 309 308 308 308 308 308 308 308 308 308 308 308 308 307 306 306 305 304 305 306 306 306 305 305 305 305 305 306 305 304 305 305 305 305 304 305 305 305 305 305 305 306 306 306 307 308 309 309 309 308 308 307
323 322 325 324 323 326 326 324 324 321 320 326 332 334 334 336 335 329 326 330 331 329 330 328 327 331 332 328 328 328 327 326 319 311 309 310 309 308 308 307 307 307 307 307 307 308 308 307 307 306 306 305 304 305 305 305 305 305 304 304 305 305 305 304 304 305 305 304 304 304 304 305 306 305 305 304 304 305 306 306 307 308 308 308 308 307 305
320 320 324 326 326 324 322 321 320 318 323 334 339 334 328 330 335 333 328 329 330 327 327 328 327 329 331 331 332 331 331 326 316 309 310 310 309 309 308 307 307 306 306 307 307 308 308 307 307 306 306 305 304 304 305 305 305 305 304 304 305 305 304 304 304 304 304 304 303 303 302 303 304 303 303 303 303 303 305 306 307 307 307 307 307 305 303
322 324 328 334 336 329 323 324 327 326 327 333 336 329 322 325 332 332 330 330 328 324 326 328 328 328 329 331 331 329 329 327 317 310 309 309 309 309 308 307 307 306 306 307 308 308 308 307 307 306 306 305 304 304 305 305 305 305 304 304 304 304 304 303 304 304 304 303 303 302 301 301 302 302 302 302 301 302 305 306 307 307 307 306 305 303 302
324 330 332 333 332 328 324 324 331 333 328 327 329 327 323 324 328 328 328 331 330 326 325 325 326 327 328 328 327 325 326 327 319 311 310 310 309 310 308 308 308 306 306 307 307 307 308 307 306 307 306 305 305 304 305 305 305 304 304 304 304 304 303 303 304 304 303 303 303 303 302 300 299 298 299 299 300 303 306 307 307 307 306 305 303 302 303
322 322 321 320 321 326 327 324 324 326 325 324 325 326 325 326 327 326 327 331 330 325 323 323 325 327 328 329 328 326 326 325 316 308 309 311 311 310 309 308 307 307 306 307 306 307 308 307 307 307 306 306 305 305 305 305 305 304 304 304 304 304 303 303 304 303 303 304 303 302 301 298 295 295 297 299 302 305 307 307 307 306 305 302 302 303 304
320 321 324 324 323 325 325 323 322 321 321 322 323 325 326 325 324 325 325 325 323 320 320 322 325 327 327 327 328 326 326 324 315 307 308 312 312 311 310 309 308 307 305 305 306 306 307 308 307 307 306 306 306 305 305 305 305 305 304 304 304 304 303 303 304 303 303 304 303 302 300 297 294 296 300 303 305 307 307 307 307 305 302 301 302 304 303
320 325 329 327 324 321 321 322 324 323 323 325 324 324 326 324 321 318 316 317 321 323 325 325 326 328 329 327 326 325 324 320 312 308 309 311 311 312 312 310 308 307 306 305 306 306 306 308 308 307 307 307 306 306 305 305 305 305 304 303 304 304 303 303 304 304 303 303 303 301 300 296 293 297 303 305 305 307 307 306 306 304 301 301 304 304 302
320 321 322 321 318 320 322 322 322 323 326 329 329 326 324 325 325 322 318 315 316 319 323 325 323 325 327 324 319 321 323 318 311 309 310 311 311 312 312 310 309 308 307 306 306 306 307 308 308 307 307 307 307 306 305 305 305 305 304 303 303 303 303 303 304 304 303 303 303 301 299 295 293 296 302 304 305 306 306 305 304 303 301 302 304 303 301
319 318 322 322 317 320 327 325 322 324 324 324 328 327 325 327 331 333 330 323 315 311 313 314 317 324 327 319 313 315 317 313 310 310 311 311 312 313 312 311 310 308 308 308 307 306 307 307 308 308 308 307 307 306 306 305 305 305 304 304 303 303 304 303 304 304 304 304 303 302 299 295 293 294 299 302 303 304 304 303 303 302 301 302 304 302 300
320 320 326 325 317 319 326 324 322 323 318 317 324 325 324 328 327 326 331 330 323 319 313 307 310 320 320 313 313 314 312 309 309 311 311 310 311 312 311 311 310 309 309 308 307 307 307 307 308 308 308 308 307 307 306 306 305 305 305 304 303 304 304 303 303 304 304 304 304 303 300 297 294 293 296 300 303 302 301 300 300 300 301 303 303 302 300
318 321 329 325 317 319 323 321 322 319 312 315 324 324 324 326 318 314 322 324 319 322 322 311 307 311 310 308 311 312 309 309 311 312 311 311 311 311 311 311 310 310 309 308 308 308 308 307 307 308 308 308 308 307 307 306 305 305 305 304 304 304 304 303 303 303 304 304 304 303 301 299 296 294 294 297 301 301 299 298 298 299 300 302 303 302 300
317 324 329 323 319 323 321 316 318 315 307 310 322 322 320 319 312 308 315 314 309 315 321 314 310 310 309 309 310 309 308 311 313 312 312 313 313 312 312 312 311 311 311 310 310 310 308 307 307 308 308 308 308 308 307 307 306 306 305 305 304 304 304 303 303 303 303 303 303 304 303 301 299 296 293 294 297 298 298 297 297 297 299 301 302 301 300
319 322 322 318 318 321 317 313 319 322 311 308 317 318 313 312 312 309 311 311 309 310 312 310 310 312 311 311 311 311 310 312 313 314 313 313 313 313 313 313 313 312 312 311 311 310 308 307 307 307 308 309 309 308 308 307 307 306 305 305 304 304 304 303 303 303 303 302 303 304 304 302 301 299 296 293 293 295 296 296 297 297 297 298 300 300 300
319 316 314 314 316 321 321 317 319 320 310 304 310 314 310 310 313 311 310 312 312 312 311 311 312 313 313 313 313 313 312 312 313 314 314 313 314 314 314 314 314 313 312 312 311 310 309 307 307 307 309 310 310 309 308 308 307 306 306 305 304 304 304 304 304 303 303 303 304 305 305 303 302 301 299 295 292 293 294 295 295 296 297 297 298 299 299
320 317 315 314 314 319 320 315 311 310 307 304 305 308 309 311 313 314 317 318 314 311 313 314 313 313 313 314 313 313 312 312 312 312 313 314 314 314 314 314 314 313 312 312 312 311 309 308 307 308 310 310 310 310 309 308 308 307 306 305 305 304 304 304 304 304 303 304 305 305 305 304 303 302 301 298 295 293 293 293 294 295 296 297 298 298 298
318 316 316 315 312 310 311 310 311 314 315 311 308 307 311 316 319 321 324 321 313 312 315 314 312 313 313 312 312 312 311 311 311 312 313 314 314 315 315 314 314 314 313 312 311 310 309 308 307 307 309 309 310 310 309 308 308 307 306 305 305 304 304 304 305 304 304 305 305 304 304 304 303 303 302 301 299 296 294 293 293 294 294 295 297 297 298
317 315 315 315 312 309 310 312 317 322 322 318 315 314 313 316 319 323 325 318 310 311 315 312 311 313 312 311 312 312 311 312 312 312 313 314 314 315 315 314 314 314 312 312 312 310 308 308 307 308 309 309 309 309 309 308 308 307 307 306 305 305 305 305 305 305 305 305 304 303 303 303 303 302 302 302 302 301 298 296 294 294 294 295 296 297 298
319 317 318 318 315 314 314 314 317 322 323 321 321 321 318 318 321 324 327 322 314 311 312 310 309 311 312 312 313 313 312 312 312 312 314 314 314 314 314 313 313 313 312 313 313 310 308 308 309 310 311 310 309 309 308 307 308 307 306 306 306 306 305 305 305 305 305 305 304 303 302 302 302 303 303 302 302 302 302 300 298 296 296 296 296 297 298
315 316 318 318 317 317 319 319 319 323 324 322 323 324 321 320 322 323 325 322 316 312 310 309 309 311 312 313 313 313 312 312 312 313 313 314 314 315 314 313 313 313 313 314 313 311 309 309 309 311 312 312 311 310 308 307 307 307 306 306 306 306 305 305 305 304 305 305 304 303 302 303 304 304 304 304 303 303 303 303 302 300 298 297 298 300 300
313 315 317 319 317 317 320 322 321 323 324 323 320 317 313 311 312 314 315 314 311 309 309 309 311 313 313 313 313 313 312 312 312 312 313 314 314 315 314 313 313 313 313 314 314 313 311 310 310 311 312 312 312 311 309 307 307 307 307 306 306 306 306 306 305 305 305 305 305 304 304 304 305 305 304 304 304 303 303 303 303 302 301 300 300 301 301
314 316 318 320 320 319 321 323 322 322 322 319 313 308 306 307 309 309 310 310 309 309 310 311 312 313 313 312 313 313 311 311 311 311 312 313 314 314 314 314 314 314 314 314 314 314 313 312 312 311 311 311 312 311 309 308 307 307 307 307 306 306 306 306 305 305 305 304 305 305 305 305 304 304 304 304 304 303 302 302 302 302 302 302 302 301 302
309 311 312 312 312 312 314 317 320 322 322 322 318 312 308 309 310 310 310 310 310 311 312 312 312 312 312 313 313 312 311 310 311 311 312 313 313 313 313 314 314 314 314 315 315 315 315 314 314 312 311 311 310 310 309 308 307 307 308 307 306 306 306 306 306 306 305 305 305 305 305 304 304 303 304 304 303 302 302 302 301 301 301 301 301 301 301
306 310 311 309 308 307 308 310 312 313 314 316 316 313 309 309 310 311 311 311 312 312 312 312 312 312 312 312 312 312 311 311 312 312 313 313 312 313 313 313 313 313 313 314 315 315 315 315 314 313 311 310 309 310 309 308 307 307 308 307 307 307 306 306 306 306 305 305 305 305 305 305 304 304 304 303 303 303 302 302 301 301 301 302 301 301 301
305 308 309 308 306 306 307 307 308 309 309 309 309 309 309 311 312 312 312 312 313 313 312 312 311 312 312 312 312 312 312 312 313 313 313 312 312 313 313 312 312 312 311 311 313 313 314 314 314 312 310 309 310 311 311 309 307 307 307 307 307 306 306 306 305 305 305 305 305 305 305 304 304 304 304 303 303 302 302 302 302 302 302 303 302 301 302
306 305 305 306 306 306 307 308 309 310 310 309 310 311 312 312 312 312 312 312 312 312 312 312 311 311 312 312 312 311 312 312 313 313 313 312 312 312 312 312 312 311 311 311 312 313 313 314 313 312 310 311 311 312 312 312 310 308 306 306 306 306 306 305 305 305 305 305 305 305 304 304 304 304 304 303 303 302 302 302 302 302 303 303 302 301 302
308 306 305 306 307 307 308 309 310 311 311 311 311 312 312 312 312 312 311 312 312 312 312 311 311 311 311 311 310 311 311 312 313 313 313 312 312 312 312 312 312 311 311 313 314 314 314 314 313 312 311 312 312 312 312 313 311 309 307 306 306 305 305 306 305 305 305 305 305 304 304 304 304 304 304 303 303 303 302 303 303 303 303 302 302 301 302
311 308 306 307 307 307 308 309 309 311 312 312 311 311 312 312 312 310 310 311 312 311 311 311 310 310 310 309 309 310 311 312 312 312 313 312 312 311 311 311 311 311 312 314 314 315 314 314 314 312 312 312 312 312 313 313 312 309 307 306 306 305 305 305 305 305 305 304 304 304 304 304 304 304 304 303 303 303 304 304 304 303 301 300 301 301 302
310 307 307 307 307 308 308 309 310 311 311 311 311 312 312 312 311 310 310 310 310 310 311 310 310 309 310 309 310 310 310 311 312 312 312 312 311 310 309 310 311 312 313 314 314 314 315 315 314 313 313 313 312 312 313 313 311 309 307 306 305 305 305 305 305 304 305 304 304 304 304 304 304 304 304 304 303 303 304 304 305 303 301 300 300 301 302
309 306 307 307 307 308 309 309 310 310 311 311 312 312 311 311 310 310 309 310 309 309 310 310 309 309 310 310 309 309 310 310 311 312 312 312 311 310 309 310 311 311 312 313 314 314 314 314 314 314 314 313 312 312 312 312 311 310 308 306 305 305 304 304 304 305 305 304 304 304 305 304 304 304 304 304 304 304 304 304 304 304 304 302 302 302 302
307 307 307 307 307 308 309 310 310 310 310 311 312 311 310 310 310 309 309 309 309 309 309 309 309 309 309 309 309 308 309 310 311 312 312 312 312 312 311 311 311 311 312 313 313 313 313 314 314 314 314 314 313 312 312 312 312 311 308 307 306 306 304 304 304 304 304 304 304 304 304 304 304 304 304 304 304 304 304 304 304 305 305 304 303 303 303
307 308 308 307 308 309 310 309 309 309 309 311 311 310 310 309 309 309 309 309 309 309 309 309 309 309 309 309 308 308 309 310 311 311 311 311 312 313 312 312 311 311 311 312 313 313 313 313 313 313 314 314 313 313 312 312 312 310 309 308 307 307 305 304 304 304 303 303 304 303 303 304 304 304 304 304 304 304 304 304 304 304 305 304 304 304 303
307 308 308 309 309 309 309 310 310 309 310 311 310 309 309 309 309 309 309 309 309 309 309 309 309 309 309 308 309 308 309 310 310 310 310 310 312 313 313 312 311 310 310 311 313 313 313 313 313 312 313 313 312 312 312 312 311 311 310 309 308 308 307 306 306 305 304 304 304 304 303 303 303 303 304 304 305 305 304 304 304 304 303 303 303 302 302
308 309 309 309 310 310 310 311 311 310 309 309 308 308 309 309 309 309 309 309 309 309 309 309 309 309 309 308 308 309 309 310 311 311 311 312 313 313 313 312 311 310 310 311 312 313 313 313 312 312 312 312 312 312 312 312 312 311 311 310 310 310 309 308 308 308 306 305 304 304 304 303 303 303 303 304 304 305 306 306 305 303 302 301 301 300 300
308 308 309 310 311 311 310 310 309 308 308 308 309 309 309 309 309 309 309 309 309 308 309 309 309 309 309 308 308 309 309 310 311 312 312 313 313 313 313 311 311 311 310 311 311 312 311 311 311 311 311 311 311 311 311 312 311 311 311 311 311 310 310 309 309 310 309 307 305 304 303 303 303 303 303 303 303 304 306 307 307 304 302 300 300 300 300
309 310 310 310 310 310 309 308 308 306 306 308 310 310 309 309 309 308 308 308 308 308 309 309 309 309 309 309 309 309 310 310 311 312 313 313 313 313 313 312 311 310 310 311 311 311 310 310 311 311 311 311 311 311 311 311 311 311 311 311 310 310 310 310 310 310 310 308 306 304 303 303 303 303 303 303 303 304 305 305 305 304 303 302 302 301 301
310 310 310 309 309 309 308 307 306 305 306 308 309 309 309 309 308 308 308 308 308 308 309 309 309 309 309 309 310 310 310 310 311 312 312 313 313 313 313 312 311 311 310 311 311 310 310 310 310 311 311 311 311 311 311 311 310 310 311 311 310 310 310 309 309 309 308 307 306 305 304 303 303 303 303 303 304 304 303 303 304 304 304 303 302 301 301
309 309 309 309 309 309 308 307 306 307 309 310 310 309 309 308 307 307 308 309 308 308 309 309 309 309 309 309 310 310 310 310 311 311 312 312 313 313 312 312 311 311 311 310 310 310 310 310 310 310 310 310 310 310 309 309 309 309 309 309 309 309 309 308 308 307 306 306 306 306 305 304 304 304 304 303 303 303 303 303 303 303 303 302 301 301 301
309 309 310 310 310 309 309 309 308 309 310 310 309 309 309 308 307 307 308 309 308 308 309 309 309 310 310 309 310 310 309 309 310 311 311 312 312 312 312 312 312 311 311 310 310 309 309 309 309 309 310 309 309 309 309 309 308 308 308 308 308 308 307 307 307 306 306 306 306 306 305 305 305 304 303 302 302 302 302 302 302 301 301 300 301 301 301
309 310 310 310 309 309 309 309 309 309 309 309 309 309 308 307 306 307 308 308 309 309 309 309 309 309 309 309 309 309 308 309 309 310 310 311 311 312 312 312 312 311 311 310 309 309 309 309 309 309 309 309 309 309 309 309 308 307 307 307 307 306 306 306 306 306 305 305 304 303 303 303 303 302 301 300 300 300 300 300 300 300 300 300 300 301 301
Wind_Speed
5 4 4 2 1 2 3 3 6 5 2 4 5 5 5 6 4 7 5 4 4 8 7 8 9 7 6 8 8 6 6 6 6 5 5 5 5 5 6 7 7 8 8 9 12 13 13 14 17 18 19 18 18 16 16 14 12 11 10 9 9 8 10 13 14 12 10 9 8 7 5 2 1 3 4 6 7 7 9 12 12 11 12 11 9 8 8
6 4 3 1 2 1 3 4 6 4 3 6 6 5 4 5 6 8 4 4 8 8 8 10 9 5 5 7 6 6 7 6 5 5 5 6 6 6 8 8 7 7 8 9 10 11 13 15 17 18 19 19 19 18 16 14 12 11 10 9 8 8 10 12 13 11 8 8 7 5 2 1 1 1 2 5 7 6 7 10 11 10 11 11 10 9 10
6 5 4 3 2 1 4 7 6 2 2 3 3 3 2 3 5 7 3 4 8 7 6 8 7 5 4 5 6 6 7 6 5 5 6 7 7 7 8 8 7 6 7 8 10 12 15 17 18 19 20 20 19 18 16 15 13 10 10 9 8 8 9 10 11 9 7 6 6 3 1 0 1 1 2 4 7 7 6 7 9 9 10 11 10 10 12
5 5 5 5 4 2 2 8 8 3 2 2 3 3 3 4 3 2 2 3 6 5 3 4 6 5 5 6 7 6 6 6 5 6 7 7 8 8 8 8 7 6 7 9 12 14 16 18 19 20 20 21 20 18 17 15 12 10 10 9 8 7 7 9 10 8 6 5 5 3 2 2 1 1 2 2 6 10 9 7 8 9 9 11 10 10 12
5 5 4 4 4 6 4 5 5 5 3 3 3 3 5 6 5 3 2 5 6 4 3 4 6 7 7 7 6 5 6 7 5 7 8 8 8 8 7 8 7 7 9 11 14 16 17 19 20 20 20 20 20 18 16 13 10 10 11 10 8 7 7 8 9 7 5 5 5 4 3 2 2 1 1 3 7 11 11 9 9 9 9 10 10 10 12
4 7 5 4 5 3 4 5 6 5 2 3 5 5 7 7 5 3 4 6 7 6 4 5 7 8 7 6 6 6 5 6 6 7 7 7 8 7 6 6 6 8 10 12 15 17 18 20 19 18 19 19 18 16 13 10 9 10 11 10 9 8 7 8 9 7 6 6 5 5 4 3 3 3 2 4 7 9 11 10 9 8 8 8 9 10 12
2 4 5 6 2 4 7 5 3 3 2 5 6 7 7 7 8 7 7 9 9 7 6 7 7 8 8 7 8 8 6 6 7 6 6 7 7 6 6 5 6 8 11 13 15 17 18 19 18 18 19 18 16 14 11 9 9 10 11 10 9 8 7 9 9 7 7 6 6 7 6 5 5 5 4 5 6 7 9 11 10 7 6 7 8 9 11
1 2 3 1 5 7 6 5 2 2 2 3 1 6 7 6 8 7 7 10 9 7 7 7 6 7 7 5 6 7 6 5 6 5 6 6 6 6 6 6 8 10 12 14 16 17 18 18 18 18 17 16 14 11 8 8 9 11 11 11 10 8 8 9 9 7 7 6 7 7 6 6 6 6 6 6 6 7 9 11 9 7 5 5 7 8 10
1 1 1 2 5 7 7 3 2 3 3 4 3 1 6 6 6 7 6 7 7 6 6 6 5 3 4 5 5 5 5 5 5 6 6 6 6 7 7 7 8 8 9 11 14 17 19 19 18 17 15 13 12 9 6 7 10 11 12 12 10 9 8 8 7 6 6 6 7 7 6 6 7 7 7 7 7 7 9 10 8 6 5 5 6 8 9
2 3 1 3 3 4 6 6 5 2 4 6 6 3 5 7 5 6 6 5 6 5 5 6 5 3 5 5 6 6 6 5 5 6 7 7 6 7 7 7 7 8 9 12 15 19 20 19 16 14 13 12 10 7 6 8 11 13 13 11 10 9 7 5 4 3 3 4 6 6 6 7 8 8 9 8 6 7 8 8 7 5 4 4 6 7 8
2 4 1 2 2 4 7 7 7 3 4 6 5 4 5 7 5 6 6 6 6 5 5 5 4 5 4 5 6 6 6 6 4 5 6 5 5 6 8 9 9 11 13 15 17 19 19 17 15 13 12 11 9 7 7 9 12 13 12 10 9 8 6 4 3 2 2 3 5 6 8 8 8 9 9 8 6 6 5 6 5 4 4 4 5 6 7
2 3 2 3 4 5 6 6 5 3 3 6 8 3 6 7 5 5 7 6 7 6 5 2 3 2 2 5 6 6 6 7 6 6 5 4 5 7 9 9 9 13 16 18 19 19 18 16 14 13 13 11 10 8 8 10 11 11 10 9 9 9 7 5 4 3 3 4 5 7 9 9 9 9 8 6 6 6 5 3 3 3 2 3 5 5 6
3 4 3 4 4 6 6 5 5 4 3 5 4 3 7 5 5 6 7 7 7 5 5 3 1 4 6 5 6 6 5 6 7 7 6 5 5 7 10 10 11 15 19 20 19 19 18 15 14 14 13 12 11 9 8 10 11 9 7 7 9 10 9 6 4 4 4 5 7 8 10 11 10 8 6 5 6 7 5 3 3 2 2 3 4 4 5
3 4 2 3 5 5 4 3 3 3 3 1 4 6 4 4 5 6 6 7 7 5 5 5 5 6 6 5 6 7 5 5 6 6 6 6 7 9 10 11 13 17 20 20 20 19 17 15 15 15 14 14 13 11 9 10 10 8 7 7 8 10 9 6 4 4 4 5 7 9 10 10 6 4 4 5 6 8 8 4 4 5 3 3 3 3 5
2 2 2 1 4 5 5 6 3 1 3 5 6 3 2 4 5 5 6 7 6 5 6 6 7 7 7 6 6 6 6 6 7 8 9 9 11 12 12 14 17 20 21 21 22 21 18 17 17 17 16 15 15 13 11 9 8 9 9 8 9 11 10 7 5 5 5 4 6 7 9 8 5 3 5 6 8 9 9 5 6 7 6 4 3 2 4
4 3 2 4 4 6 6 6 4 5 6 5 5 3 2 4 5 4 5 6 6 6 7 7 7 6 7 7 7 6 6 6 7 8 10 11 13 15 17 18 20 22 23 23 23 22 20 19 19 19 18 17 16 16 14 9 8 10 10 9 10 11 9 8 6 6 5 3 5 7 8 8 8 8 8 8 10 10 7 4 8 9 8 6 2 2 3
4 5 6 6 4 4 5 5 6 7 5 3 6 5 3 4 4 4 4 5 7 7 7 6 5 5 6 7 6 6 6 7 7 9 11 12 14 17 18 19 21 24 25 25 24 23 23 22 21 21 20 19 18 18 16 11 10 11 11 10 11 11 9 7 6 6 5 4 6 8 8 9 9 10 9 9 9 7 3 6 9 10 9 5 2 3 5
4 4 4 4 4 4 6 7 6 5 4 3 4 5 4 5 5 5 4 6 5 4 5 5 5 5 6 6 7 7 6 7 9 11 12 14 15 15 16 18 21 24 25 23 22 23 24 24 24 23 22 21 20 19 17 14 13 13 12 12 12 11 9 7 7 6 6 6 7 7 8 9 8 8 7 7 6 3 4 7 8 9 8 5 4 6 8
2 3 4 4 4 5 6 5 6 6 6 6 5 5 5 6 5 5 6 5 3 2 5 6 5 7 7 6 7 8 6 7 9 11 12 15 15 15 17 19 21 22 22 22 22 24 25 26 26 26 25 24 21 18 17 15 15 15 15 14 13 12 10 8 8 7 6 7 8 7 7 8 6 5 4 4 3 4 7 8 9 9 7 4 6 9 10
4 5 7 6 5 6 6 5 5 5 6 7 6 6 6 5 4 5 6 5 4 4 5 7 7 7 7 7 7 7 6 7 8 10 13 15 16 16 17 17 18 20 23 24 25 26 27 28 28 27 27 26 23 20 18 17 17 17 17 17 15 14 12 10 9 8 8 9 8 7 7 6 4 2 2 2 2 6 8 8 8 7 5 5 8 10 10
3 6 6 4 5 7 7 6 6 7 6 6 5 5 5 5 6 5 6 7 8 8 7 6 6 6 8 7 7 7 7 7 9 13 15 15 16 17 17 15 16 20 24 27 28 29 29 29 29 29 29 28 26 23 20 19 19 19 19 18 17 15 13 11 9 9 9 9 8 6 6 5 3 1 3 3 3 6 7 6 5 4 4 6 10 11 10
5 6 5 3 2 4 6 6 7 7 5 4 4 4 4 6 7 6 6 8 8 9 10 8 6 5 8 8 7 7 7 9 12 16 16 16 16 17 16 14 16 20 24 27 28 29 30 29 29 30 31 29 27 26 23 22 21 21 21 20 18 16 15 12 10 10 10 9 8 6 5 4 2 1 4 5 4 5 5 5 5 4 6 9 12 11 10
6 7 7 5 4 3 6 7 7 6 2 4 5 6 6 7 7 6 6 6 6 7 9 9 8 7 8 10 8 6 8 13 16 17 16 15 16 17 15 13 14 19 22 25 26 29 29 28 29 31 32 30 29 28 26 25 23 22 22 21 19 18 17 14 12 12 11 10 8 6 5 4 3 1 4 5 5 5 5 5 6 7 9 11 12 11 10
5 6 7 6 5 4 6 6 6 6 4 5 6 7 7 7 7 6 6 6 7 6 6 7 8 8 9 12 10 7 9 14 16 16 16 15 14 15 15 14 15 18 21 23 26 29 30 29 30 32 32 31 30 29 28 27 25 23 23 23 21 20 19 17 14 14 13 12 9 7 7 6 4 3 4 6 7 7 6 7 8 10 11 12 12 11 9
5 5 6 7 6 6 6 5 5 7 7 7 6 6 8 9 9 8 7 7 8 8 6 7 9 8 8 11 10 8 10 13 14 14 15 15 14 14 14 14 16 18 20 22 25 28 28 29 31 32 32 32 31 30 29 29 27 25 24 24 23 22 20 19 17 15 15 14 12 10 9 9 7 5 4 6 8 8 8 9 10 11 11 12 11 11 9
6 4 4 3 3 4 4 3 5 7 9 10 7 7 10 10 9 8 9 8 9 8 8 8 9 8 7 9 10 10 10 13 14 14 14 14 14 14 13 14 16 17 19 21 23 25 26 27 29 30 31 32 32 32 31 30 29 27 25 25 24 23 21 19 18 17 17 16 14 12 11 11 10 7 5 5 7 8 9 10 11 11 12 12 12 11 9
5 4 4 0 5 5 4 5 6 7 7 9 11 10 9 8 6 6 6 6 6 6 6 7 8 8 8 8 9 9 10 11 12 13 13 13 14 15 15 15 16 15 15 18 20 22 24 24 26 29 32 33 32 32 32 32 31 29 27 26 26 24 21 20 19 18 18 17 15 13 13 12 12 10 8 6 6 8 9 10 11 12 13 13 12 11 10
4 4 5 4 5 7 6 6 7 8 8 8 11 9 5 3 1 1 3 4 4 4 6 6 5 7 9 8 8 10 10 10 11 13 14 15 15 16 16 16 15 14 14 15 17 19 20 22 25 29 33 34 31 30 32 33 32 31 29 28 28 26 24 22 21 20 19 17 15 14 14 13 13 13 11 9 7 7 8 9 10 12 12 13 12 12 11
6 6 5 6 8 8 6 6 5 7 7 6 6 4 4 3 1 1 3 5 4 4 6 7 7 8 9 10 10 10 10 10 11 13 15 16 16 17 17 16 16 15 14 14 15 16 17 19 22 27 32 33 30 29 31 33 33 32 31 30 29 28 26 24 22 21 19 17 15 15 15 15 14 14 14 12 11 9 8 9 10 11 12 13 13 13 12
7 5 6 7 8 6 6 7 6 7 6 4 4 3 4 5 4 4 5 5 3 3 6 8 9 10 11 11 10 9 9 11 13 14 15 16 16 17 17 16 15 14 14 14 15 13 14 16 18 21 26 29 29 29 30 33 34 33 33 32 30 29 28 26 24 22 20 18 16 16 17 16 16 16 15 15 14 12 11 10 10 11 12 13 14 14 15
4 3 5 6 6 5 7 8 7 7 5 4 5 4 4 4 4 6 5 4 4 5 7 8 9 11 12 11 11 11 11 12 13 15 16 16 17 17 17 15 13 14 16 18 16 13 12 16 18 17 18 22 26 29 30 32 33 33 33 33 32 30 28 27 25 24 23 20 18 18 19 18 17 17 17 17 17 16 15 14 13 12 13 13 14 15 16
3 3 3 4 4 5 6 6 6 6 6 5 5 6 6 6 6 5 5 5 5 7 7 8 10 12 12 11 12 13 13 13 14 15 16 16 17 17 17 16 15 15 17 19 18 14 13 17 19 17 15 19 24 27 29 32 33 33 34 35 34 31 29 27 26 26 25 22 20 20 21 20 19 18 19 20 19 19 19 18 18 17 16 15 16 16 16
5 4 5 4 4 5 6 6 6 7 7 6 6 7 7 7 6 6 7 8 8 8 9 11 12 12 11 11 12 13 13 13 14 14 15 16 17 17 17 17 17 17 18 17 17 15 15 18 19 19 20 24 24 24 27 32 34 33 34 35 35 33 31 29 28 28 27 25 24 24 23 23 22 21 20 21 20 20 21 21 21 21 20 19 19 18 17
9 8 8 8 8 7 8 8 7 7 6 6 6 6 6 7 8 8 9 9 8 9 11 13 13 12 10 10 12 12 11 10 9 11 14 17 17 17 17 17 17 18 18 17 16 16 16 18 19 19 22 27 26 23 25 31 34 34 34 35 36 35 34 32 30 29 28 27 27 26 25 24 24 23 22 22 21 22 23 23 23 23 22 22 21 20 19
12 10 10 10 10 10 10 9 8 7 7 6 6 6 8 9 10 10 10 10 9 11 13 13 12 11 10 9 11 11 11 9 9 12 15 16 15 16 17 17 17 18 18 18 17 16 16 17 18 17 20 25 27 25 25 29 34 35 34 35 36 36 35 34 33 32 31 30 29 28 27 26 25 23 23 23 23 24 24 24 24 23 23 22 21 19 18
13 9 8 9 12 12 11 10 9 9 8 7 7 7 9 10 11 11 11 11 12 13 14 12 10 10 9 10 10 11 12 13 13 13 14 14 14 15 16 16 17 17 18 19 19 17 16 16 16 16 18 20 21 22 23 27 33 35 35 35 36 36 35 35 34 33 33 32 31 30 29 28 26 24 24 24 26 26 26 25 25 24 24 23 21 20 18
15 13 10 10 12 13 13 13 14 13 11 9 9 10 10 11 13 13 13 14 13 13 13 11 10 10 10 11 12 12 14 15 14 13 12 13 13 14 15 16 17 16 15 16 20 20 18 17 16 15 15 16 16 19 21 24 29 34 35 35 35 36 35 35 34 33 33 33 33 32 30 29 27 26 25 26 27 28 28 27 27 25 25 25 23 22 20
14 16 16 14 14 14 15 16 17 15 12 10 10 11 13 14 14 14 14 14 14 14 14 12 11 11 12 12 13 14 15 16 14 13 12 12 12 13 14 16 18 17 16 18 21 22 19 18 17 14 14 14 16 21 22 22 25 31 34 35 35 36 35 35 35 34 34 34 34 33 31 29 29 28 27 27 28 28 28 28 28 27 27 27 26 24 23
9 12 15 15 13 14 14 14 14 14 13 11 11 13 14 14 14 14 14 15 16 15 15 13 11 11 12 12 13 15 17 17 15 14 13 12 12 13 15 18 19 19 18 20 21 19 17 16 17 16 17 18 21 23 22 21 24 29 32 34 34 35 36 36 35 35 34 34 34 34 33 31 30 29 28 29 29 30 30 29 28 28 28 28 27 26 25
6 8 11 12 12 12 12 12 12 13 14 13 13 13 13 13 13 12 13 14 14 14 13 12 10 11 12 13 13 15 18 18 17 16 14 12 13 13 15 18 20 19 17 17 18 17 15 14 15 17 19 22 23 23 21 21 23 26 30 33 33 33 35 36 35 34 34 34 34 34 34 33 32 30 30 30 31 31 31 30 28 27 27 27 27 27 26
7 9 11 12 11 12 12 12 12 12 13 13 13 13 13 13 12 11 11 12 12 12 12 12 11 12 14 14 15 16 18 19 18 17 14 13 13 12 11 15 19 19 15 15 17 17 15 14 14 15 17 20 22 23 22 21 21 22 26 30 31 32 33 34 34 34 34 34 34 35 35 35 34 32 31 31 31 32 32 30 29 27 26 26 26 27 27
8 10 11 10 10 12 12 12 11 11 12 13 14 13 13 12 11 11 11 12 12 12 13 13 12 13 15 15 15 17 18 18 19 18 16 14 13 11 11 15 19 18 15 16 18 17 16 16 14 14 15 17 19 20 18 17 18 20 22 24 26 29 30 31 32 34 34 34 34 35 36 35 35 34 33 32 32 32 32 32 31 29 28 28 28 29 28
10 11 10 10 11 12 13 13 12 11 12 13 13 11 10 10 10 10 11 12 12 12 13 13 13 13 14 14 14 15 17 17 18 18 17 16 16 14 13 15 18 18 16 18 19 18 18 18 16 15 14 16 17 17 14 14 17 20 20 21 23 27 28 29 29 31 31 30 31 33 34 35 35 34 33 33 33 33 33 33 33 33 32 32 31 32 31
13 13 12 12 12 13 13 13 11 9 9 11 11 10 8 8 9 10 11 11 12 12 12 13 13 13 14 13 13 14 16 17 17 16 14 13 15 16 16 15 16 17 18 19 19 18 18 18 17 16 15 15 17 18 16 15 16 18 20 22 24 27 27 26 26 27 28 28 29 31 32 34 35 35 34 34 33 33 33 33 34 34 35 34 34 34 33
13 14 14 13 13 13 12 11 10 9 9 10 10 9 8 9 10 10 9 9 10 10 10 12 13 14 14 15 15 16 17 18 18 16 12 9 10 14 16 15 15 17 18 18 18 18 18 17 16 16 15 14 14 16 17 17 17 17 19 21 24 26 26 25 26 27 28 29 30 31 31 32 33 34 34 35 34 33 32 31 31 32 33 33 33 33 33
13 13 14 13 12 11 11 10 9 9 8 7 7 9 10 10 9 8 7 7 8 9 11 12 14 15 15 15 16 17 18 19 18 17 15 14 14 16 16 15 15 17 17 17 17 17 17 16 16 16 15 13 11 13 16 17 17 17 18 19 22 25 26 27 28 28 29 30 31 31 31 32 32 33 33 34 34 32 30 28 26 26 27 28 28 26 26
12 11 12 12 11 10 9 8 7 6 6 5 6 9 10 9 7 7 8 8 9 10 12 13 14 15 16 15 15 16 17 17 16 15 16 16 16 16 15 15 15 16 17 17 17 16 16 16 15 14 13 12 9 8 11 14 15 16 17 18 21 24 26 26 25 25 26 28 29 29 30 31 31 31 31 31 31 31 29 26 24 23 22 21 20 18 18
12 12 11 11 10 8 8 7 7 8 8 9 10 10 10 9 8 9 9 10 11 12 11 11 12 13 14 13 13 14 15 13 11 12 15 15 14 15 16 16 16 16 17 17 16 14 14 14 13 12 11 11 9 6 7 10 12 14 15 17 19 22 24 25 24 22 23 24 26 27 28 28 28 28 29 29 30 30 29 27 25 23 21 19 17 15 15
11 11 9 8 8 8 8 8 9 9 10 12 12 12 11 9 9 11 12 12 12 11 10 10 11 12 13 13 14 15 15 13 12 14 17 18 17 17 18 18 16 15 16 16 14 12 12 12 12 10 9 9 8 8 8 9 11 13 15 16 18 20 23 25 25 23 22 22 24 25 26 26 26 26 27 27 28 28 27 26 25 23 21 19 18 16 15
10 9 8 9 10 11 11 11 10 11 12 12 12 12 11 9 9 12 14 13 11 11 11 11 12 12 13 13 14 14 14 14 14 15 17 19 19 20 20 19 16 15 15 15 13 11 10 11 10 9 7 7 7 7 8 9 11 12 14 15 17 19 20 22 23 23 22 21 21 23 25 26 26 25 24 24 24 25 25 24 23 21 20 19 19 19 18
10 9 11 12 12 12 12 11 11 12 13 13 13 13 12 12 13 15 15 13 11 11 12 12 12 12 13 13 14 13 14 14 14 15 16 17 18 20 20 19 16 15 15 14 12 10 9 9 9 8 7 7 7 7 7 8 9 9 10 10 11 13 13 15 17 18 18 18 18 20 21 23 24 23 22 22 22 23 23 22 22 22 22 23 23 23 23
10 11 11 11 11 11 12 13 13 14 15 15 15 15 15 15 15 16 15 14 13 12 11 11 12 13 13 13 14 15 15 15 15 15 16 16 17 18 19 19 17 15 14 13 12 9 8 8 8 7 7 7 7 7 7 7 7 7 6 5 5 6 7 8 10 13 13 14 15 16 17 18 19 19 19 19 20 22 23 23 25 26 26 26 25 24 23
Wind_Direction
266 222 233 242 173 239 231 222 258 274 201 170 190 220 208 159 181 257 242 171 222 262 275 281 279 275 274 277 283 285 285 282 277 282 282 266 255 244 231 225 222 220 224 222 218 217 213 208 207 207 207 208 211 217 221 223 233 246 253 257 266 280 292 298 302 308 316 316 309 308 307 299 335 350 12 25 19 17 18 9 5 11 8 357 355 3 6
301 294 299 240 167 299 298 259 255 253 211 206 216 237 216 184 228 258 245 237 262 263 258 267 277 278 262 267 284 290 283 280 277 270 265 261 254 241 236 234 226 222 227 225 220 215 209 206 205 206 207 207 211 216 219 222 233 245 249 253 264 279 295 304 307 310 317 316 311 305 293 286 333 324 9 26 12 2 15 16 11 9 8 4 7 19 21
307 315 6 39 101 208 266 282 294 289 248 246 236 241 216 206 263 278 283 279 278 267 246 256 281 306 301 294 299 291 278 274 273 266 259 257 255 246 243 241 232 225 224 220 216 211 208 206 205 206 209 208 211 216 218 223 234 244 245 249 259 276 297 308 308 309 313 314 313 294 253 265 261 305 358 20 11 357 355 7 7 4 5 3 4 13 16
293 311 5 351 341 28 304 301 300 266 189 219 223 214 197 190 216 277 332 292 263 263 291 292 289 309 323 305 293 291 288 273 250 250 259 257 249 246 246 243 233 222 215 212 210 209 209 207 205 208 208 207 211 216 218 226 237 243 242 244 254 270 295 305 304 305 304 304 309 290 262 262 261 318 343 357 5 355 345 345 347 351 1 2 1 4 6
271 293 338 327 352 26 350 286 247 205 201 238 247 266 240 202 165 153 213 241 240 252 327 325 304 310 313 293 274 276 291 287 260 243 251 258 256 250 246 242 235 225 221 218 214 211 210 207 205 206 205 206 212 215 218 228 240 242 240 240 247 263 286 295 294 298 293 294 307 299 282 278 265 276 333 359 356 345 338 336 335 344 1 4 2 2 1
269 290 330 11 33 28 272 240 187 178 223 208 210 249 242 209 186 200 235 255 265 275 279 271 276 284 283 277 273 267 264 271 272 260 252 258 264 263 255 246 237 227 222 219 217 215 212 206 203 201 202 207 214 215 219 232 242 243 239 236 243 258 278 286 286 289 286 288 299 298 291 289 285 292 324 348 346 335 331 334 330 336 359 3 0 359 357
248 307 17 33 6 236 248 269 234 210 194 168 201 258 257 220 219 246 266 271 271 276 272 258 256 264 268 271 275 269 248 233 251 267 273 267 262 264 262 246 228 218 212 209 209 208 205 200 194 194 199 207 214 218 223 238 245 240 234 233 241 254 274 284 285 284 283 285 294 300 302 299 303 324 338 339 338 328 327 333 327 322 345 356 355 354 352
249 354 58 47 269 265 287 316 291 203 134 128 231 296 288 239 207 212 242 262 272 285 287 276 266 268 282 293 275 262 251 234 227 234 255 255 239 241 242 223 211 208 205 205 203 198 193 189 187 191 199 207 214 218 224 235 238 231 228 233 241 251 273 289 294 289 279 284 300 310 317 318 320 336 343 336 333 324 325 334 329 314 321 339 345 347 347
154 122 211 266 310 317 316 311 220 181 162 162 160 266 280 255 197 184 217 261 285 294 289 291 292 297 345 353 314 281 278 265 233 222 236 244 238 239 237 223 214 210 208 205 196 186 181 181 185 191 200 207 212 215 218 222 223 222 225 234 242 251 271 291 303 295 279 292 315 320 322 326 330 338 340 334 327 321 326 336 331 314 312 320 326 335 340
108 99 306 320 355 317 275 253 255 245 175 171 147 110 298 277 220 188 203 245 277 287 293 308 324 16 28 348 299 297 308 293 254 238 243 245 243 236 216 201 197 196 195 189 183 179 177 181 187 192 199 207 208 209 217 216 215 218 225 234 242 249 261 280 299 299 287 307 325 325 324 331 334 336 339 337 325 316 324 335 334 326 328 317 307 319 335
113 114 150 236 225 249 247 245 268 277 166 152 105 55 317 278 232 188 189 226 253 253 263 299 7 39 6 303 269 275 298 295 265 245 243 234 229 221 204 195 191 185 181 177 176 179 182 185 188 191 201 209 207 211 222 216 213 219 225 234 240 239 242 258 276 284 303 325 329 326 325 328 327 326 331 332 319 308 315 334 341 336 332 311 294 303 325
171 136 180 231 231 248 249 243 253 241 154 102 72 29 278 258 232 192 180 214 242 230 229 272 38 45 268 257 253 263 288 294 272 249 244 236 223 214 206 204 198 183 177 176 179 185 190 191 189 194 205 212 209 215 221 211 211 219 226 238 245 237 233 245 264 276 300 320 324 321 315 311 309 310 317 321 314 308 307 317 325 321 311 288 282 291 317
165 166 220 267 259 249 245 233 216 192 132 75 82 224 239 230 223 205 185 209 235 223 209 208 211 232 225 227 260 282 297 291 268 246 246 256 250 228 214 210 201 187 183 185 190 196 198 195 193 198 207 212 209 211 211 209 214 222 228 240 242 230 225 236 259 279 300 315 320 320 316 312 305 299 309 322 315 310 313 300 262 257 257 258 265 283 320
163 172 202 292 285 249 197 169 183 164 128 152 218 223 218 194 208 209 201 218 227 211 212 216 218 244 256 256 273 287 284 268 261 254 247 245 245 234 218 209 203 194 191 194 200 203 202 198 198 203 209 212 210 208 210 217 224 229 233 234 223 214 217 228 251 277 299 318 327 332 333 331 320 291 304 323 311 305 312 298 230 213 207 220 239 279 330
150 99 89 343 285 248 162 125 111 149 177 206 216 219 222 210 207 199 206 226 223 202 221 238 234 252 279 284 282 285 276 260 260 260 247 236 234 229 217 210 207 200 198 201 206 208 205 202 203 206 211 215 213 212 220 229 231 232 237 231 210 205 212 221 243 275 293 316 333 337 338 337 330 302 305 319 313 306 307 281 210 190 180 186 203 308 348
140 127 196 212 226 226 191 155 166 206 210 195 169 156 238 240 220 197 208 236 231 202 213 243 249 254 272 279 281 288 284 272 268 264 253 240 233 227 220 216 211 205 205 208 211 211 208 205 206 209 213 218 218 218 224 229 225 227 233 227 211 209 218 228 247 271 280 300 323 323 322 318 310 301 301 304 303 304 299 234 190 173 161 165 171 22 39
173 183 214 224 227 232 224 213 212 219 227 198 162 169 229 250 221 187 192 235 237 210 207 234 251 254 261 270 278 282 280 278 277 274 267 255 243 237 232 224 216 211 211 213 213 213 210 208 210 211 214 219 223 224 225 225 223 225 227 222 215 216 224 235 246 256 262 281 302 306 310 315 311 304 297 291 291 293 260 187 177 162 149 149 119 73 97
257 249 236 234 251 259 243 237 238 237 243 226 176 181 231 249 226 196 202 236 243 203 189 213 240 250 255 270 279 274 271 278 278 274 274 269 259 249 240 232 222 217 215 215 216 216 214 212 212 214 215 219 224 227 227 225 223 224 223 218 216 218 225 238 244 245 252 272 285 291 304 320 324 316 302 289 280 257 175 165 165 154 144 134 102 104 111
254 275 263 229 232 247 243 250 268 263 244 227 198 198 230 240 226 214 224 246 257 181 183 206 238 253 252 255 270 274 272 273 276 274 273 271 266 255 247 240 230 218 214 216 218 218 217 215 214 215 216 219 223 228 230 226 222 222 222 218 216 219 224 232 238 239 245 262 275 287 305 323 334 326 307 292 255 179 150 149 153 149 139 119 113 119 117
185 240 254 249 255 263 255 247 256 254 243 232 218 215 228 240 241 232 226 227 217 195 203 211 224 249 258 249 253 271 276 271 275 276 272 272 273 269 261 249 231 217 215 217 218 220 220 217 216 217 218 219 222 225 227 227 222 221 222 220 219 221 224 226 232 237 243 255 268 283 299 318 335 313 266 265 195 158 145 142 146 143 131 120 124 126 118
266 276 272 276 298 297 284 258 241 239 238 236 236 237 236 243 253 252 241 231 217 213 224 217 203 233 262 258 248 260 271 272 275 276 276 278 279 275 270 255 234 224 222 221 221 222 223 220 218 218 219 220 221 222 224 226 224 222 223 222 221 222 223 223 225 233 243 254 266 279 288 304 329 250 214 220 189 159 150 148 145 138 133 133 131 127 118
269 263 243 217 231 274 273 259 249 247 228 212 245 270 257 244 246 243 248 254 240 230 236 229 199 219 257 264 257 256 262 268 273 278 283 287 286 282 278 264 243 233 230 228 227 227 226 222 218 220 221 221 221 221 222 225 226 225 224 223 222 222 221 218 220 229 242 253 260 265 270 284 306 221 198 205 201 181 172 171 166 159 150 142 137 131 122
234 231 219 191 162 214 250 251 255 265 227 186 234 260 254 252 251 230 226 252 263 258 253 239 216 218 249 264 265 260 267 274 278 284 290 290 289 291 289 271 251 242 238 233 230 230 230 224 220 222 223 222 221 221 221 224 227 228 226 224 223 221 218 217 220 227 239 250 254 252 250 259 277 227 182 187 189 185 185 179 167 161 153 148 144 139 128
233 236 215 181 162 209 248 251 253 260 229 196 225 247 245 250 254 229 211 226 241 255 277 270 249 242 254 265 266 259 270 283 290 297 301 299 297 297 292 277 261 253 244 235 232 233 232 225 221 223 224 223 222 221 221 222 225 227 227 225 223 220 218 218 221 227 237 245 248 245 239 239 249 237 187 178 177 178 177 168 159 157 155 153 152 149 138
217 225 193 172 184 220 250 271 271 258 229 206 220 244 238 239 245 233 220 230 237 237 252 278 281 274 265 270 275 268 271 286 299 304 307 309 308 303 295 285 274 266 257 249 243 240 234 225 222 223 224 225 225 223 221 222 223 225 225 224 222 219 217 218 221 227 235 241 243 245 242 236 237 240 214 188 181 180 177 169 163 162 162 161 161 159 152
214 199 152 153 231 248 267 297 290 264 233 207 208 235 235 234 241 235 230 243 251 241 236 255 279 291 284 279 289 287 279 289 303 308 309 310 310 308 305 299 294 285 274 263 254 247 239 229 223 223 226 228 228 225 223 223 222 223 224 223 222 220 217 217 221 225 231 237 240 244 244 235 230 237 234 204 189 187 183 177 173 173 172 170 169 169 166
228 185 148 232 303 289 256 229 239 264 252 209 206 226 237 237 244 244 244 254 259 252 251 261 281 299 300 294 297 296 290 295 308 314 315 312 311 314 316 314 311 302 287 272 262 254 244 232 224 224 230 233 231 227 224 223 222 222 222 222 222 221 219 221 223 224 228 235 238 240 239 232 227 230 231 216 199 194 194 190 184 180 178 176 176 178 179
243 208 181 210 249 253 250 235 239 266 273 231 215 221 227 230 253 253 255 263 262 268 283 291 294 299 302 304 302 299 300 306 312 315 318 319 319 322 323 320 316 308 295 280 270 259 246 234 227 228 232 235 233 228 225 223 221 220 220 221 222 222 222 223 223 222 227 234 236 232 230 231 230 228 226 225 216 201 199 201 194 186 183 182 183 186 189
245 226 203 220 232 240 274 300 277 264 263 239 214 198 172 172 192 261 259 262 272 296 302 303 302 299 297 296 294 294 301 309 312 313 317 322 326 328 326 323 318 310 297 284 273 260 245 233 227 230 236 238 235 230 226 223 220 220 219 219 221 222 222 223 222 221 226 234 233 224 222 227 230 226 222 226 229 219 208 205 200 194 191 191 193 196 199
249 226 207 236 249 247 263 275 261 250 247 219 188 175 166 177 205 243 257 260 261 274 283 291 299 299 293 291 293 297 300 304 309 313 317 323 329 330 329 325 318 306 295 287 279 261 239 226 225 235 244 243 238 233 228 222 219 220 219 218 220 223 223 222 220 219 225 231 228 218 217 222 227 225 221 223 226 227 224 218 210 204 201 199 201 206 207
247 222 203 230 238 218 225 237 240 246 243 197 180 195 188 178 209 243 262 270 259 262 278 290 292 290 291 298 308 312 311 311 314 316 319 324 329 331 331 327 314 299 294 293 287 267 237 226 229 240 248 246 240 234 228 221 218 217 216 216 219 222 223 223 221 219 222 226 224 217 216 220 224 225 225 224 223 224 227 226 223 219 213 210 212 212 211
225 273 261 244 222 208 223 233 235 243 237 195 185 207 205 196 213 235 246 255 261 269 282 287 283 285 296 311 316 316 317 318 318 319 321 325 328 330 331 328 318 306 301 299 292 275 245 232 234 236 235 237 238 234 227 221 217 214 214 216 217 219 221 222 221 220 222 224 222 218 216 219 223 226 228 228 226 224 224 225 226 226 223 221 221 220 215
196 247 259 239 214 221 240 238 227 230 226 204 200 214 213 207 212 223 234 249 266 277 279 278 280 289 302 312 313 315 319 320 321 323 324 325 328 331 331 329 324 316 311 306 299 283 258 246 247 242 233 233 238 235 227 222 219 216 216 216 216 217 219 220 220 221 221 221 221 219 217 219 223 228 231 232 229 225 224 224 226 227 227 227 227 227 224
195 210 215 205 196 206 222 224 218 222 229 224 220 225 226 224 227 237 246 252 260 267 269 273 282 292 300 306 309 313 317 316 315 316 317 321 326 331 332 331 326 320 316 312 305 292 277 267 264 254 242 238 240 237 229 224 220 218 217 216 215 216 219 220 220 220 220 221 222 221 221 222 225 229 234 234 229 224 224 225 225 227 229 231 232 233 233
210 220 223 217 211 211 212 212 208 208 214 222 225 225 231 235 238 243 249 251 253 261 270 278 286 291 294 298 304 308 307 301 296 300 308 316 323 327 329 330 329 325 323 318 311 304 296 286 277 264 251 244 241 239 235 227 221 219 218 217 217 217 219 221 221 221 221 223 224 222 223 226 227 229 233 234 228 224 224 225 226 228 231 235 238 239 240
215 222 231 230 227 224 221 218 214 205 201 208 214 216 226 236 238 241 248 254 260 268 277 283 286 287 289 293 297 299 298 296 296 300 307 314 322 326 327 327 326 325 323 319 318 318 312 302 290 273 255 244 240 241 239 231 223 220 219 218 218 218 219 221 223 223 222 223 224 225 227 229 229 230 233 233 228 225 225 226 227 230 234 239 243 246 247
217 217 224 230 226 221 220 222 219 210 203 205 211 214 223 234 241 246 253 260 266 275 282 283 281 283 288 293 295 295 294 293 293 296 302 310 317 320 321 321 323 322 314 310 318 322 317 310 301 279 252 240 242 244 241 235 229 224 220 219 218 218 218 220 221 222 222 222 223 226 228 228 228 229 231 232 229 227 226 227 227 230 236 242 245 246 248
222 219 223 231 228 220 221 223 218 207 196 197 210 221 229 237 246 253 259 264 271 278 282 283 282 284 288 292 292 292 294 295 291 288 294 303 308 310 310 311 313 312 306 308 317 320 313 307 300 276 243 236 249 250 245 241 236 229 223 220 219 218 218 219 220 221 222 221 222 224 225 226 227 227 227 228 229 228 227 229 230 232 237 241 243 244 247
223 219 221 225 223 217 215 212 204 198 196 201 215 226 233 241 251 258 263 269 276 279 280 282 284 284 284 285 284 285 292 298 293 285 287 296 299 299 301 305 310 313 314 318 321 320 312 306 296 270 241 236 245 248 245 244 242 233 226 223 221 219 218 219 220 220 221 221 220 221 222 224 226 227 226 226 227 227 229 232 235 236 239 241 241 242 246
213 207 204 203 202 201 199 193 193 201 208 213 220 230 242 253 260 263 266 273 280 284 284 282 278 274 275 275 274 280 291 298 294 285 283 291 296 295 297 307 318 325 327 326 325 321 315 309 296 273 253 243 243 245 247 249 247 238 229 225 223 221 220 220 219 219 220 219 217 218 220 222 224 226 227 227 227 228 231 235 237 238 238 238 238 240 244
208 195 187 185 186 189 191 191 198 209 217 222 231 242 253 261 264 265 269 277 284 289 288 283 274 272 277 278 278 283 291 295 292 284 278 281 288 287 287 305 321 329 328 326 327 325 319 311 299 283 268 256 250 249 249 249 250 246 235 228 224 222 221 220 219 218 219 218 217 217 218 220 222 224 226 226 227 229 232 235 238 238 236 235 236 239 244
199 185 179 182 188 190 193 196 203 214 225 232 238 247 255 260 261 264 269 278 284 288 290 289 285 282 285 288 289 291 293 294 291 284 275 274 279 278 278 300 318 327 327 323 324 324 321 316 308 295 281 268 260 256 248 242 246 249 241 232 230 228 225 222 221 220 220 220 219 218 218 219 220 222 224 225 227 229 232 234 236 237 237 237 238 240 244
194 183 179 185 191 192 196 201 206 217 230 239 244 251 256 258 260 264 270 278 284 287 291 296 297 294 293 294 292 290 292 294 291 282 275 277 283 284 288 303 318 325 325 321 320 319 317 316 313 305 292 276 266 261 251 240 241 241 235 231 234 234 231 228 227 225 222 220 219 219 219 218 219 221 223 224 226 229 232 233 235 236 237 239 240 241 243
191 186 186 192 195 196 199 203 205 214 234 249 255 256 254 253 259 266 271 278 285 290 294 296 298 300 301 299 291 285 289 292 290 282 276 279 289 296 303 314 320 321 321 320 318 315 313 313 312 310 303 288 272 264 257 247 241 237 230 226 229 231 229 230 232 231 228 226 225 223 222 221 220 221 222 223 226 229 231 233 236 238 239 240 241 242 242
191 193 194 195 195 197 202 207 212 224 241 252 256 255 253 257 265 270 271 274 282 290 296 296 297 300 302 300 295 292 293 294 289 281 269 262 279 297 308 316 318 318 319 318 316 315 315 314 311 309 308 299 281 268 259 250 243 237 232 229 230 230 229 231 235 237 236 234 231 229 228 226 225 223 223 224 227 231 235 238 241 242 242 242 241 242 242
194 197 197 195 198 205 213 221 230 237 240 245 253 259 260 261 262 263 264 268 280 293 300 300 298 297 297 296 295 296 297 297 294 286 272 263 273 291 303 310 314 317 319 318 316 316 317 313 308 307 308 306 289 268 259 253 246 239 234 231 230 230 230 231 234 236 237 237 235 233 232 231 230 228 227 226 227 230 234 240 245 247 246 244 243 243 243
190 190 193 198 205 213 218 221 223 219 212 214 242 259 261 258 255 260 265 271 281 292 297 298 297 297 295 293 292 292 292 294 296 295 287 280 281 289 297 304 310 315 317 318 319 318 316 312 308 306 309 314 306 273 256 253 249 243 238 234 231 231 232 232 233 235 237 238 237 236 234 233 231 230 229 229 228 228 230 235 240 242 243 241 240 239 238
187 190 197 204 209 211 211 208 204 205 213 224 237 248 254 258 264 271 275 278 283 288 292 295 301 306 306 302 299 298 294 286 279 284 291 290 287 288 293 300 308 313 314 316 320 321 319 317 315 310 309 314 318 300 269 258 252 247 244 241 237 236 235 234 235 237 238 236 234 234 234 233 230 228 227 228 228 229 229 229 230 231 232 231 227 223 220
196 199 203 207 209 212 213 208 205 215 231 239 243 249 255 263 270 275 279 283 285 285 286 291 299 306 309 308 305 306 304 294 279 278 285 288 286 286 291 297 303 308 311 314 317 320 321 324 326 324 318 315 314 303 286 273 264 258 254 249 246 243 240 239 239 239 236 232 231 233 234 233 230 227 225 225 225 226 225 222 220 220 220 218 210 202 196
205 205 209 215 219 221 221 217 220 233 244 250 255 259 260 256 258 268 277 282 281 278 281 290 295 299 303 307 311 315 319 317 308 298 291 286 282 283 288 292 297 303 308 311 313 315 319 325 331 333 334 331 322 310 298 288 279 272 266 260 256 254 250 247 244 242 238 235 236 236 235 233 230 228 226 223 221 219 216 213 210 207 203 197 190 181 174
210 215 224 231 236 240 242 243 246 252 257 260 262 262 256 249 252 263 271 274 272 273 281 289 295 297 302 309 315 319 323 324 323 318 309 298 289 284 285 287 292 298 304 307 307 306 309 318 325 329 332 335 334 327 318 306 295 286 280 274 270 267 263 256 249 244 240 237 236 235 233 230 227 224 218 212 207 203 201 198 193 186 178 172 166 160 158
229 235 243 249 253 257 261 260 257 255 257 257 256 256 255 253 255 261 264 264 264 267 272 277 284 293 302 310 314 316 318 318 318 318 315 310 301 293 287 285 287 293 297 299 299 296 296 302 310 318 323 329 335 335 328 320 312 304 294 284 276 271 265 255 246 241 237 232 228 223 216 210 207 203 196 189 184 180 175 170 165 160 155 152 150 150 152